Time,TemperatureF,DewpointF,PressureIn,WindDirection,WindDirectionDegrees,WindSpeedMPH,WindSpeedGustMPH,Humidity,HourlyPrecipIn,Conditions,Clouds,dailyrainin,SoftwareType,DateUTC
2017-10-18 00:00:00,66.0,60.6,30.27,ENE,64,2.6,6.3,83,0.00,,,0.00,WSDL version 420,2017-10-17 13:00:00,
2017-10-18 00:05:00,66.0,60.8,30.27,ENE,59,2.9,6.3,83,0.00,,,0.00,WSDL version 420,2017-10-17 13:05:00,
2017-10-18 00:10:00,66.0,61.3,30.27,East,83,1.8,6.0,86,0.00,,,0.00,WSDL version 420,2017-10-17 13:10:00,
2017-10-18 00:15:00,66.0,61.6,30.27,ENE,65,0.2,6.5,86,0.00,,,0.00,WSDL version 420,2017-10-17 13:15:00,
2017-10-18 00:20:00,66.0,61.9,30.27,East,101,2.5,6.5,87,0.00,,,0.00,WSDL version 420,2017-10-17 13:20:00,
2017-10-18 00:25:00,66.0,62.1,30.27,North,8,2.5,6.0,88,0.00,,,0.00,WSDL version 420,2017-10-17 13:25:00,
2017-10-18 00:30:00,65.9,62.1,30.27,ENE,74,4.5,6.5,88,0.00,,,0.00,WSDL version 420,2017-10-17 13:30:00,
2017-10-18 00:35:00,65.9,62.2,30.27,NE,34,2.0,6.5,88,0.00,,,0.00,WSDL version 420,2017-10-17 13:35:00,
2017-10-18 00:40:00,65.9,62.2,30.27,East,80,1.0,6.3,88,0.00,,,0.00,WSDL version 420,2017-10-17 13:40:00,
2017-10-18 00:45:00,65.8,62.2,30.27,East,98,1.2,6.3,89,0.00,,,0.00,WSDL version 420,2017-10-17 13:45:00,
2017-10-18 00:50:00,65.8,62.3,30.27,ENE,77,1.9,5.8,89,0.00,,,0.00,WSDL version 420,2017-10-17 13:50:00,
2017-10-18 00:55:00,65.8,62.4,30.27,ENE,71,0.0,5.8,88,0.00,,,0.00,WSDL version 420,2017-10-17 13:55:00,
2017-10-18 01:00:00,65.7,62.0,30.27,East,80,2.4,6.3,88,0.00,,,0.00,WSDL version 420,2017-10-17 14:00:00,
2017-10-18 01:05:00,65.7,61.9,30.27,ENE,75,1.5,6.3,88,0.00,,,0.00,WSDL version 420,2017-10-17 14:05:00,
2017-10-18 01:10:00,65.7,62.1,30.27,ENE,68,1.1,5.8,89,0.00,,,0.00,WSDL version 420,2017-10-17 14:10:00,
2017-10-18 01:15:00,65.7,62.3,30.27,East,87,0.4,5.8,89,0.00,,,0.00,WSDL version 420,2017-10-17 14:15:00,
2017-10-18 01:20:00,65.8,62.5,30.27,East,98,2.3,4.7,89,0.00,,,0.00,WSDL version 420,2017-10-17 14:20:00,
2017-10-18 01:25:00,65.8,62.5,30.27,ENE,77,0.2,4.7,89,0.00,,,0.00,WSDL version 420,2017-10-17 14:25:00,
2017-10-18 01:30:00,65.8,62.1,30.27,ESE,106,1.0,3.8,88,0.00,,,0.00,WSDL version 420,2017-10-17 14:30:00,
2017-10-18 01:35:00,65.8,62.2,30.27,NE,43,2.3,5.6,88,0.00,,,0.00,WSDL version 420,2017-10-17 14:35:00,
2017-10-18 01:40:00,66.0,62.2,30.27,ENE,64,0.4,5.6,88,0.00,,,0.00,WSDL version 420,2017-10-17 14:40:00,
2017-10-18 01:45:00,66.0,62.5,30.27,ENE,58,0.0,3.8,89,0.00,,,0.00,WSDL version 420,2017-10-17 14:45:00,
2017-10-18 01:50:00,66.0,62.6,30.27,NE,51,1.2,6.0,89,0.00,,,0.00,WSDL version 420,2017-10-17 14:50:00,
2017-10-18 01:55:00,66.0,62.7,30.27,East,90,0.0,6.0,89,0.00,,,0.00,WSDL version 420,2017-10-17 14:55:00,
2017-10-18 02:00:00,66.0,62.7,30.27,East,90,0.7,4.3,89,-99.99,,,-99.99,WSDL version 420,2017-10-17 15:00:00,
2017-10-18 02:05:00,66.0,62.7,30.27,East,98,0.0,4.3,89,0.00,,,0.00,WSDL version 420,2017-10-17 15:05:00,
2017-10-18 02:10:00,65.9,62.6,30.27,NE,56,0.0,4.3,89,0.00,,,0.00,WSDL version 420,2017-10-17 15:10:00,
2017-10-18 02:15:00,65.8,62.5,30.27,ESE,107,1.0,2.5,89,0.00,,,0.00,WSDL version 420,2017-10-17 15:15:00,
2017-10-18 02:20:00,65.8,62.5,30.27,East,81,2.2,5.6,89,0.00,,,0.00,WSDL version 420,2017-10-17 15:20:00,
2017-10-18 02:25:00,65.8,62.4,30.27,NNE,30,0.0,5.6,89,0.00,,,0.00,WSDL version 420,2017-10-17 15:25:00,
2017-10-18 02:30:00,65.7,62.6,30.24,East,100,0.0,5.6,90,0.00,,,0.00,WSDL version 420,2017-10-17 15:30:00,
2017-10-18 02:35:00,65.7,62.6,30.24,NW,311,0.0,0.0,90,0.00,,,0.00,WSDL version 420,2017-10-17 15:35:00,
2017-10-18 02:40:00,65.7,62.6,30.24,SE,135,0.0,1.6,90,0.00,,,0.00,WSDL version 420,2017-10-17 15:40:00,
2017-10-18 02:45:00,65.8,62.7,30.21,ENE,64,1.8,4.3,90,0.00,,,0.00,WSDL version 420,2017-10-17 15:45:00,
2017-10-18 02:50:00,65.8,63.0,30.21,East,90,1.4,4.3,91,0.00,,,0.00,WSDL version 420,2017-10-17 15:50:00,
2017-10-18 02:55:00,65.8,62.9,30.21,NE,56,0.6,4.0,90,0.00,,,0.00,WSDL version 420,2017-10-17 15:55:00,
2017-10-18 03:00:00,65.8,62.8,30.21,ENE,70,0.0,3.4,90,0.00,,,0.00,WSDL version 420,2017-10-17 16:00:00,
2017-10-18 03:05:00,66.0,63.0,30.21,WNW,293,0.0,3.4,90,0.00,,,0.00,WSDL version 420,2017-10-17 16:05:00,
2017-10-18 03:10:00,66.0,63.0,30.21,ESE,104,0.0,1.1,90,0.00,,,0.00,WSDL version 420,2017-10-17 16:10:00,
2017-10-18 03:15:00,66.0,63.0,30.21,NNE,29,2.8,3.6,90,0.00,,,0.00,WSDL version 420,2017-10-17 16:15:00,
2017-10-18 03:20:00,66.0,63.0,30.21,East,90,5.0,7.2,90,0.00,,,0.00,WSDL version 420,2017-10-17 16:20:00,
2017-10-18 03:25:00,66.0,63.0,30.21,East,84,3.4,7.2,90,0.00,,,0.00,WSDL version 420,2017-10-17 16:25:00,
2017-10-18 03:35:00,65.8,62.8,30.21,ENE,68,3.5,7.6,90,0.00,,,0.00,WSDL version 420,2017-10-17 16:35:00,
2017-10-18 03:40:00,65.8,62.8,30.21,ENE,76,1.7,7.2,90,0.00,,,0.00,WSDL version 420,2017-10-17 16:40:00,
2017-10-18 03:45:00,65.8,62.8,30.21,WSW,244,0.4,8.9,90,0.00,,,0.00,WSDL version 420,2017-10-17 16:45:00,
2017-10-18 03:50:00,65.7,62.6,30.21,NE,53,2.1,8.9,90,0.00,,,0.00,WSDL version 420,2017-10-17 16:50:00,
2017-10-18 03:55:00,65.7,62.6,30.21,NE,48,3.2,7.6,90,0.00,,,0.00,WSDL version 420,2017-10-17 16:55:00,
2017-10-18 04:00:00,65.7,62.6,30.21,East,98,1.7,7.6,90,0.00,,,0.00,WSDL version 420,2017-10-17 17:00:00,
2017-10-18 04:05:00,65.5,62.5,30.21,ENE,60,2.8,5.8,90,0.00,,,0.00,WSDL version 420,2017-10-17 17:05:00,
2017-10-18 04:10:00,65.5,62.5,30.21,ENE,64,3.1,6.0,90,0.00,,,0.00,WSDL version 420,2017-10-17 17:10:00,
2017-10-18 04:15:00,-999.9,-99.9,30.21,ENE,77,2.2,6.0,-999,0.00,,,0.00,WSDL version 420,2017-10-17 17:15:00,
2017-10-18 04:20:00,65.5,62.5,30.21,East,80,2.5,5.8,90,0.00,,,0.00,WSDL version 420,2017-10-17 17:20:00,
2017-10-18 04:25:00,65.5,62.5,30.21,East,83,0.4,5.6,90,0.00,,,0.00,WSDL version 420,2017-10-17 17:25:00,
2017-10-18 04:30:00,65.5,62.6,30.21,NNE,26,2.9,5.6,91,0.00,,,0.00,WSDL version 420,2017-10-17 17:30:00,
2017-10-18 04:35:00,65.5,62.7,30.21,ENE,63,1.4,5.4,91,0.00,,,0.00,WSDL version 420,2017-10-17 17:35:00,
2017-10-18 04:40:00,65.7,63.0,30.21,East,96,3.7,8.1,91,0.00,,,0.00,WSDL version 420,2017-10-17 17:40:00,
2017-10-18 04:45:00,65.7,63.0,30.21,NNE,23,2.0,8.1,91,0.00,,,0.00,WSDL version 420,2017-10-17 17:45:00,
2017-10-18 04:50:00,65.7,63.1,30.21,North,10,1.5,5.8,92,0.00,,,0.00,WSDL version 420,2017-10-17 17:50:00,
2017-10-18 04:55:00,65.8,63.5,30.21,East,101,0.3,3.4,92,0.00,,,0.00,WSDL version 420,2017-10-17 17:55:00,
2017-10-18 05:00:00,65.7,63.4,30.21,East,98,0.0,2.5,92,0.00,,,0.00,WSDL version 420,2017-10-17 18:00:00,
2017-10-18 05:05:00,65.7,63.3,30.21,ESE,115,0.1,1.6,92,0.00,,,0.00,WSDL version 420,2017-10-17 18:05:00,
2017-10-18 05:10:00,65.7,63.3,30.21,SSE,158,0.0,1.6,92,0.00,,,0.00,WSDL version 420,2017-10-17 18:10:00,
2017-10-18 05:15:00,65.7,63.3,30.21,North,360,1.6,5.4,92,0.00,,,0.00,WSDL version 420,2017-10-17 18:15:00,
2017-10-18 05:20:00,65.6,63.5,30.21,North,360,1.1,5.4,93,-99.99,,,-99.99,WSDL version 420,2017-10-17 18:20:00,
2017-10-18 05:25:00,65.5,63.5,30.21,ESE,122,0.0,3.8,93,0.00,,,0.00,WSDL version 420,2017-10-17 18:25:00,
2017-10-18 05:30:00,65.5,63.5,30.18,North,349,0.0,2.9,93,0.00,,,0.00,WSDL version 420,2017-10-17 18:30:00,
2017-10-18 05:35:00,65.4,63.5,30.18,SSE,161,0.0,2.9,93,0.00,,,0.00,WSDL version 420,2017-10-17 18:35:00,
2017-10-18 05:40:00,65.3,63.3,30.18,NNW,333,1.1,3.8,93,0.00,,,0.00,WSDL version 420,2017-10-17 18:40:00,
2017-10-18 05:45:00,65.3,63.3,30.21,ENE,75,0.0,3.8,93,0.00,,,0.00,WSDL version 420,2017-10-17 18:45:00,
2017-10-18 05:50:00,65.2,63.2,30.21,SE,143,0.0,0.0,93,0.00,,,0.00,WSDL version 420,2017-10-17 18:50:00,
2017-10-18 05:55:00,65.1,63.1,30.21,NW,323,0.4,4.0,93,0.00,,,0.00,WSDL version 420,2017-10-17 18:55:00,
2017-10-18 06:00:00,65.1,63.1,30.21,ENE,68,1.7,4.0,93,0.00,,,0.00,WSDL version 420,2017-10-17 19:00:00,
2017-10-18 06:05:00,65.0,63.0,30.21,NNE,23,0.0,3.4,93,0.00,,,0.00,WSDL version 420,2017-10-17 19:05:00,
2017-10-18 06:10:00,64.9,63.0,30.21,SE,128,0.0,2.7,93,0.00,,,0.00,WSDL version 420,2017-10-17 19:10:00,
2017-10-18 06:15:00,64.9,63.0,30.21,NE,56,0.0,0.0,93,0.00,,,0.00,WSDL version 420,2017-10-17 19:15:00,
2017-10-18 06:20:00,64.9,63.0,30.21,NE,45,0.0,0.0,93,0.00,,,0.00,WSDL version 420,2017-10-17 19:20:00,
2017-10-18 06:25:00,64.9,63.0,30.21,North,349,0.0,1.6,93,-99.99,,,-99.99,WSDL version 420,2017-10-17 19:25:00,
2017-10-18 06:30:00,64.9,63.0,30.24,NE,55,0.0,1.6,93,0.00,,,0.00,WSDL version 420,2017-10-17 19:30:00,
2017-10-18 06:35:00,64.9,63.0,30.24,NE,45,0.0,0.0,93,0.00,,,0.00,WSDL version 420,2017-10-17 19:35:00,
2017-10-18 06:40:00,64.9,63.0,30.24,ESE,119,0.0,0.0,93,0.00,,,0.00,WSDL version 420,2017-10-17 19:40:00,
2017-10-18 06:45:00,64.8,62.9,30.24,ESE,105,1.7,3.6,93,0.00,,,0.00,WSDL version 420,2017-10-17 19:45:00,
2017-10-18 06:50:00,64.8,62.8,30.24,NNW,348,0.1,3.6,93,0.00,,,0.00,WSDL version 420,2017-10-17 19:50:00,
2017-10-18 06:55:00,64.8,62.8,30.24,North,349,0.0,2.2,93,0.00,,,0.00,WSDL version 420,2017-10-17 19:55:00,
2017-10-18 07:00:00,64.7,62.7,30.24,NE,34,0.0,2.7,93,0.00,,,0.00,WSDL version 420,2017-10-17 20:00:00,
2017-10-18 07:05:00,64.6,62.6,30.24,NE,51,0.0,2.7,93,0.00,,,0.00,WSDL version 420,2017-10-17 20:05:00,
2017-10-18 07:10:00,64.7,62.7,30.24,SE,124,0.0,1.3,93,0.00,,,0.00,WSDL version 420,2017-10-17 20:10:00,
2017-10-18 07:15:00,64.8,62.8,30.24,ESE,122,0.1,2.0,93,0.00,,,0.00,WSDL version 420,2017-10-17 20:15:00,
2017-10-18 07:20:00,64.9,63.0,30.24,NE,53,0.0,2.5,93,0.00,,,0.00,WSDL version 420,2017-10-17 20:20:00,
2017-10-18 07:25:00,65.1,63.1,30.24,East,80,1.0,2.5,93,-99.99,,,-99.99,WSDL version 420,2017-10-17 20:25:00,
2017-10-18 07:30:00,65.1,63.1,30.24,East,99,2.2,4.5,93,0.00,,,0.00,WSDL version 420,2017-10-17 20:30:00,
2017-10-18 07:35:00,65.1,63.1,30.24,ENE,73,2.7,4.5,93,0.00,,,0.00,WSDL version 420,2017-10-17 20:35:00,
2017-10-18 07:40:00,65.4,63.4,30.24,ENE,72,3.7,7.4,93,0.00,,,0.00,WSDL version 420,2017-10-17 20:40:00,
2017-10-18 07:45:00,65.6,63.9,30.27,ENE,71,0.9,7.4,94,0.00,,,0.00,WSDL version 420,2017-10-17 20:45:00,
2017-10-18 07:50:00,65.8,63.8,30.27,East,98,2.7,6.0,93,0.00,,,0.00,WSDL version 420,2017-10-17 20:50:00,
2017-10-18 07:55:00,66.0,64.0,30.27,ENE,77,1.3,6.0,93,0.00,,,0.00,WSDL version 420,2017-10-17 20:55:00,
2017-10-18 08:00:00,66.2,64.2,30.27,NE,39,2.1,6.5,93,0.00,,,0.00,WSDL version 420,2017-10-17 21:00:00,
2017-10-18 08:05:00,66.3,64.2,30.27,NE,45,3.7,6.5,92,0.00,,,0.00,WSDL version 420,2017-10-17 21:05:00,
2017-10-18 08:10:00,66.5,64.2,30.27,ENE,75,2.0,6.0,92,0.00,,,0.00,WSDL version 420,2017-10-17 21:10:00,
2017-10-18 08:15:00,66.8,64.5,30.27,ENE,74,0.4,6.0,92,0.00,,,0.00,WSDL version 420,2017-10-17 21:15:00,
2017-10-18 08:20:00,67.2,64.6,30.27,SSW,203,1.2,6.0,91,0.00,,,0.00,WSDL version 420,2017-10-17 21:20:00,
2017-10-18 08:25:00,67.5,64.6,30.27,East,93,1.9,4.9,90,0.00,,,0.00,WSDL version 420,2017-10-17 21:25:00,
2017-10-18 08:30:00,67.9,64.6,30.24,East,83,1.1,7.4,89,0.00,,,0.00,WSDL version 420,2017-10-17 21:30:00,
2017-10-18 08:35:00,68.1,64.3,30.24,East,79,3.6,7.8,88,0.00,,,0.00,WSDL version 420,2017-10-17 21:35:00,
2017-10-18 08:40:00,68.4,64.1,30.24,East,81,4.4,7.8,87,0.00,,,0.00,WSDL version 420,2017-10-17 21:40:00,
2017-10-18 08:45:00,68.5,63.7,30.27,East,87,4.5,9.2,84,0.00,,,0.00,WSDL version 420,2017-10-17 21:45:00,
2017-10-18 08:55:00,68.7,62.9,30.27,East,80,3.3,12.8,81,0.00,,,0.00,WSDL version 420,2017-10-17 21:55:00,
2017-10-18 09:00:00,68.7,62.8,30.27,East,93,4.0,7.6,81,0.00,,,0.00,WSDL version 420,2017-10-17 22:00:00,
2017-10-18 09:05:00,69.0,63.1,30.27,East,80,1.7,6.5,81,0.00,,,0.00,WSDL version 420,2017-10-17 22:05:00,
2017-10-18 09:10:00,69.1,63.0,30.27,NE,51,4.6,10.5,81,-99.99,,,-99.99,WSDL version 420,2017-10-17 22:10:00,
2017-10-18 09:15:00,69.1,62.8,30.30,NE,53,4.4,10.5,80,0.00,,,0.00,WSDL version 420,2017-10-17 22:15:00,
2017-10-18 09:20:00,69.3,62.8,30.30,East,101,3.8,12.8,80,0.00,,,0.00,WSDL version 420,2017-10-17 22:20:00,
2017-10-18 09:25:00,69.3,62.5,30.30,NE,51,5.8,12.8,79,0.00,,,0.00,WSDL version 420,2017-10-17 22:25:00,
2017-10-18 09:30:00,69.3,62.3,30.27,NNE,30,2.9,9.8,78,0.00,,,0.00,WSDL version 420,2017-10-17 22:30:00,
2017-10-18 09:35:00,69.3,62.4,30.27,NE,48,7.7,12.8,79,0.00,,,0.00,WSDL version 420,2017-10-17 22:35:00,
2017-10-18 09:40:00,69.4,62.3,30.27,East,94,5.8,12.8,78,0.00,,,0.00,WSDL version 420,2017-10-17 22:40:00,
2017-10-18 09:45:00,69.4,62.0,30.27,ESE,103,6.6,12.5,76,0.00,,,0.00,WSDL version 420,2017-10-17 22:45:00,
2017-10-18 09:50:00,69.4,61.5,30.27,NNE,23,4.7,12.5,75,0.00,,,0.00,WSDL version 420,2017-10-17 22:50:00,
2017-10-18 09:55:00,69.4,61.4,30.27,NNE,16,4.9,9.8,77,0.00,,,0.00,WSDL version 420,2017-10-17 22:55:00,
2017-10-18 10:00:00,69.5,61.9,30.30,NE,42,2.8,8.1,77,0.00,,,0.00,WSDL version 420,2017-10-17 23:00:00,
2017-10-18 10:05:00,69.6,62.3,30.30,ENE,75,4.3,11.9,77,0.00,,,0.00,WSDL version 420,2017-10-17 23:05:00,
2017-10-18 10:10:00,69.5,62.2,30.30,East,90,4.6,12.5,78,0.00,,,0.00,WSDL version 420,2017-10-17 23:10:00,
2017-10-18 10:15:00,69.4,62.4,30.27,East,83,5.6,12.5,79,0.00,,,0.00,WSDL version 420,2017-10-17 23:15:00,
2017-10-18 10:20:00,69.3,62.7,30.27,North,3,1.9,8.7,80,0.00,,,0.00,WSDL version 420,2017-10-17 23:20:00,
2017-10-18 10:25:00,69.4,63.2,30.27,East,94,4.0,7.4,81,0.00,,,0.00,WSDL version 420,2017-10-17 23:25:00,
2017-10-18 10:30:00,69.8,63.6,30.27,East,98,5.5,8.7,80,0.00,,,0.00,WSDL version 420,2017-10-17 23:30:00,
2017-10-18 10:35:00,70.4,63.5,30.27,NNE,30,2.1,8.7,78,0.00,,,0.00,WSDL version 420,2017-10-17 23:35:00,
2017-10-18 10:40:00,70.8,63.4,30.27,ENE,61,4.4,7.8,77,0.00,,,0.00,WSDL version 420,2017-10-17 23:40:00,
2017-10-18 10:45:00,71.2,63.7,30.27,East,87,5.4,10.7,77,0.00,,,0.00,WSDL version 420,2017-10-17 23:45:00,
2017-10-18 10:50:00,71.8,63.6,30.27,NE,53,3.9,10.7,75,0.00,,,0.00,WSDL version 420,2017-10-17 23:50:00,
2017-10-18 10:55:00,71.9,62.5,30.27,ESE,119,7.7,13.2,69,-99.99,,,-99.99,WSDL version 420,2017-10-17 23:55:00,
2017-10-18 11:00:00,71.8,57.4,30.27,East,80,6.4,13.2,54,0.00,,,0.00,WSDL version 420,2017-10-18 00:00:00,
2017-10-18 11:05:00,71.9,50.8,30.27,East,96,5.9,8.7,45,0.00,,,0.00,WSDL version 420,2017-10-18 00:05:00,
2017-10-18 11:10:00,72.0,48.0,30.27,East,86,6.4,15.2,41,0.00,,,0.00,WSDL version 420,2017-10-18 00:10:00,
2017-10-18 11:15:00,72.1,45.8,30.27,East,82,4.1,15.2,39,0.00,,,0.00,WSDL version 420,2017-10-18 00:15:00,
2017-10-18 11:20:00,72.7,46.1,30.27,ESE,103,4.2,10.3,39,0.00,,,0.00,WSDL version 420,2017-10-18 00:20:00,
2017-10-18 11:30:00,72.9,44.4,30.30,East,90,7.8,16.8,36,-99.99,,,-99.99,WSDL version 420,2017-10-18 00:30:00,
2017-10-18 11:35:00,73.3,44.5,30.30,ENE,73,6.4,16.8,36,0.00,,,0.00,WSDL version 420,2017-10-18 00:35:00,
2017-10-18 11:40:00,73.6,44.1,30.30,ENE,58,9.4,14.8,34,0.00,,,0.00,WSDL version 420,2017-10-18 00:40:00,
2017-10-18 11:45:00,73.5,42.9,30.27,ENE,62,6.3,16.6,33,0.00,,,0.00,WSDL version 420,2017-10-18 00:45:00,
2017-10-18 11:50:00,73.4,42.6,30.27,East,84,6.6,16.6,33,-99.99,,,-99.99,WSDL version 420,2017-10-18 00:50:00,
2017-10-18 11:55:00,73.4,42.6,30.27,North,357,4.6,12.1,33,0.00,,,0.00,WSDL version 420,2017-10-18 00:55:00,
2017-10-18 12:00:00,73.4,42.6,30.27,ENE,60,4.1,10.5,33,0.00,,,0.00,WSDL version 420,2017-10-18 01:00:00,
2017-10-18 12:05:00,73.4,42.1,30.27,NE,53,4.9,12.1,32,0.00,,,0.00,WSDL version 420,2017-10-18 01:05:00,
2017-10-18 12:10:00,73.7,42.2,30.27,ENE,68,6.6,12.5,32,0.00,,,0.00,WSDL version 420,2017-10-18 01:10:00,
2017-10-18 12:15:00,74.3,43.4,30.27,NE,50,4.3,12.5,33,0.00,,,0.00,WSDL version 420,2017-10-18 01:15:00,
2017-10-18 12:20:00,74.7,43.7,30.27,ENE,64,5.4,12.5,33,0.00,,,0.00,WSDL version 420,2017-10-18 01:20:00,
2017-10-18 12:25:00,74.6,42.8,30.27,NNE,25,4.3,12.8,32,0.00,,,0.00,WSDL version 420,2017-10-18 01:25:00,
2017-10-18 12:30:00,74.8,43.0,30.24,NNE,31,3.6,12.8,32,0.00,,,0.00,WSDL version 420,2017-10-18 01:30:00,
2017-10-18 12:35:00,75.4,43.3,30.24,ENE,77,4.3,11.9,31,0.00,,,0.00,WSDL version 420,2017-10-18 01:35:00,
2017-10-18 12:40:00,75.8,43.1,30.24,ENE,62,5.3,14.1,31,0.00,,,0.00,WSDL version 420,2017-10-18 01:40:00,
2017-10-18 12:45:00,75.8,43.1,30.24,East,100,5.0,14.1,31,0.00,,,0.00,WSDL version 420,2017-10-18 01:45:00,
2017-10-18 12:50:00,75.7,42.9,30.24,ENE,71,6.6,13.0,31,0.00,,,0.00,WSDL version 420,2017-10-18 01:50:00,
2017-10-18 12:55:00,75.6,42.9,30.24,East,83,6.3,13.6,31,0.00,,,0.00,WSDL version 420,2017-10-18 01:55:00,
2017-10-18 13:00:00,-999.9,-99.9,30.24,ENE,68,6.8,13.6,-999,0.00,,,0.00,WSDL version 420,2017-10-18 02:00:00,
2017-10-18 13:05:00,75.6,41.8,30.24,NE,51,4.8,12.3,30,0.00,,,0.00,WSDL version 420,2017-10-18 02:05:00,
2017-10-18 13:10:00,75.7,41.8,30.24,East,86,6.8,18.8,29,0.00,,,0.00,WSDL version 420,2017-10-18 02:10:00,
2017-10-18 13:15:00,75.9,41.4,30.21,NE,53,3.6,18.8,29,0.00,,,0.00,WSDL version 420,2017-10-18 02:15:00,
2017-10-18 13:20:00,76.3,41.5,30.21,NE,49,5.1,13.2,29,-99.99,,,-99.99,WSDL version 420,2017-10-18 02:20:00,
2017-10-18 13:25:00,76.5,40.3,30.21,East,85,9.9,19.0,27,0.00,,,0.00,WSDL version 420,2017-10-18 02:25:00,
2017-10-18 13:30:00,-999.9,-99.9,30.21,NE,41,7.2,19.0,-999,0.00,,,0.00,WSDL version 420,2017-10-18 02:30:00,
2017-10-18 13:35:00,77.0,40.1,30.21,NE,49,7.9,17.2,26,0.00,,,0.00,WSDL version 420,2017-10-18 02:35:00,
2017-10-18 13:40:00,77.1,38.3,30.21,NE,34,7.2,17.2,24,0.00,,,0.00,WSDL version 420,2017-10-18 02:40:00,
2017-10-18 13:45:00,76.6,37.9,30.18,NE,55,8.7,16.8,25,0.00,,,0.00,WSDL version 420,2017-10-18 02:45:00,
2017-10-18 13:50:00,76.9,37.7,30.18,SSW,194,4.9,15.7,24,0.00,,,0.00,WSDL version 420,2017-10-18 02:50:00,
2017-10-18 13:55:00,77.1,37.3,30.18,NE,42,6.9,15.7,23,0.00,,,0.00,WSDL version 420,2017-10-18 02:55:00,
2017-10-18 14:00:00,-999.9,-99.9,30.21,East,86,10.1,15.2,-999,0.00,,,0.00,WSDL version 420,2017-10-18 03:00:00,
2017-10-18 14:05:00,76.9,35.5,30.21,NE,53,8.5,15.2,22,0.00,,,0.00,WSDL version 420,2017-10-18 03:05:00,
2017-10-18 14:10:00,77.1,36.0,30.21,East,80,7.2,12.5,23,0.00,,,0.00,WSDL version 420,2017-10-18 03:10:00,
2017-10-18 14:18:00,77.5,35.7,30.21,South,172,7.6,17.9,22,0.00,,,0.00,WSDL version 420,2017-10-18 03:18:00,
2017-10-18 14:23:00,77.4,34.8,30.21,ENE,59,8.1,17.9,21,0.00,,,0.00,WSDL version 420,2017-10-18 03:23:00,
2017-10-18 14:28:00,77.5,34.5,30.21,East,90,10.7,22.1,21,-99.99,,,-99.99,WSDL version 420,2017-10-18 03:28:00,
2017-10-18 14:33:00,77.4,34.4,30.21,NE,53,7.5,22.1,21,0.00,,,0.00,WSDL version 420,2017-10-18 03:33:00,
2017-10-18 14:38:00,77.7,34.7,30.21,ENE,61,7.6,15.4,21,0.00,,,0.00,WSDL version 420,2017-10-18 03:38:00,
2017-10-18 14:43:00,78.0,35.0,30.21,East,90,7.5,12.8,21,0.00,,,0.00,WSDL version 420,2017-10-18 03:43:00,
2017-10-18 14:48:00,78.1,35.0,30.21,NE,45,7.2,12.8,21,0.00,,,0.00,WSDL version 420,2017-10-18 03:48:00,
2017-10-18 14:53:00,78.2,35.1,30.21,East,86,5.1,8.7,21,0.00,,,0.00,WSDL version 420,2017-10-18 03:53:00,
2017-10-18 14:58:00,78.5,35.4,30.21,ENE,74,6.9,12.3,21,0.00,,,0.00,WSDL version 420,2017-10-18 03:58:00,
2017-10-18 15:03:00,78.6,35.5,30.21,East,79,7.5,12.3,21,0.00,,,0.00,WSDL version 420,2017-10-18 04:03:00,
2017-10-18 15:08:00,78.7,35.5,30.21,NE,39,6.9,15.7,21,0.00,,,0.00,WSDL version 420,2017-10-18 04:08:00,
2017-10-18 15:13:00,78.8,35.6,30.21,WSW,255,8.3,15.7,21,0.00,,,0.00,WSDL version 420,2017-10-18 04:13:00,
2017-10-18 15:18:00,79.0,35.8,30.21,East,90,8.1,17.2,21,0.00,,,0.00,WSDL version 420,2017-10-18 04:18:00,
2017-10-18 15:23:00,78.7,35.5,30.21,NE,53,4.8,17.2,21,0.00,,,0.00,WSDL version 420,2017-10-18 04:23:00,
2017-10-18 15:28:00,78.6,35.5,30.21,ENE,68,7.8,13.4,21,0.00,,,0.00,WSDL version 420,2017-10-18 04:28:00,
2017-10-18 15:33:00,78.4,35.6,30.21,ENE,61,6.7,13.4,21,0.00,,,0.00,WSDL version 420,2017-10-18 04:33:00,
2017-10-18 15:38:00,78.0,36.1,30.21,ENE,77,9.5,16.8,22,0.00,,,0.00,WSDL version 420,2017-10-18 04:38:00,
2017-10-18 15:43:00,77.9,36.0,30.21,NE,34,4.3,22.8,22,0.00,,,0.00,WSDL version 420,2017-10-18 04:43:00,
2017-10-18 15:48:00,77.9,36.1,30.21,NE,45,5.5,22.8,22,0.00,,,0.00,WSDL version 420,2017-10-18 04:48:00,